INMARSAT 3-F5
1 25153U 98006B   03055.93034387  .00000128  00000-0  10000-3 0  8500
2 25153   0.4659 353.2098 0002981 340.8087 180.2910  1.00275946 18567
HOT BIRD 4
1 25237U 98013A   03054.87288413  .00000076  00000-0  10000-3 0  3297
2 25237   0.1375 286.4975 0007524 344.7565 209.3309  1.00269684 18595
NOAA 15
1 25338U 98030A   03056.90451123  .00000145  00000-0  81435-4 0   176
2 25338  98.5486  78.8549 0009737 299.0125  61.0077 14.24248101248842
RESURS O1-N4
1 25394U 98043A   03057.22513060  .00000092  00000-0  59079-4 0  4575
2 25394  98.6303 135.0117 0002430  87.6779 272.4676 14.23880482240623
TMSAT
1 25396U 98043C   03056.56467499 -.00000043  00000-0  00000+0 0  8269
2 25396  98.6243 133.5295 0003625 109.7426 250.4144 14.23513762240529
TECHSAT 1B
1 25397U 98043D   03055.95636878 +.00000060 +00000-0 +45781-4 0 01262
2 25397 098.6210 131.8109 0002199 117.7747 242.3653 14.22961490240405
ASTRA 2A
1 25462U 98050A   03051.31926416  .00000000  00000-0  10000-3 0  5330
2 25462   0.0870 297.6948 0007001 278.8390  76.4419  1.00266022 16452
EUTELSAT W2
1 25491U 98056A   03054.87350111  .00000093  00000-0  00000+0 0  5815
2 25491   0.0035 219.8387 0006366 134.6005 129.2966  1.00273680 16109
HOT BIRD 5
1 25495U 98057A 2 25495   0.0310 255.9940 0003377  65.4663 190.5501  1.00272693 15956
SEDSAT 1
1 25509U 98061B   03056.57548543  .00000642  00000-0  11833-3 0  7887
2 25509  31.4313 113.5921 0357268   3.9904 356.3455 14.27444572226311
PAN SAT
1 25520U 98064B   03055.55834812  .00001970  00000-0  95733-4 0  6412
2 25520  28.4634 183.9707 0005441  55.5189 304.5864 15.13912763238499
ISS (ZARYA)
1 25544U 98067A   03057.53241255  .00014684  00000-0  19229-3 0  7292
2 25544  51.6347 216.0130 0011819 248.6417 184.9121 15.58773043243742
ORSTED
1 25635U 99008B   03056.52271467  .00000699  00000-0  18508-3 0  8409
2 25635  96.4523  41.0915 0144512 307.6205  51.1946 14.44856655210942
SUNSAT
1 25636U 99008C   03055.95810477 +.00000395 +00000-0 +11200-3 0 06836
2 25636 096.4541 039.3055 0148326 315.9137 043.0308 14.42962998210736
UOSAT 12
1 25693U 99021A   03057.27206290 -.00000024  00000-0  16460-4 0  7388
2 25693  64.5608 347.2072 0020877 315.3949  44.5473 14.76396225207392
FENGYUN 1C
1 25730U 99025A   03056.52792457  .00000032  00000-0  40557-4 0  7759
2 25730  98.6339  80.6662 0014334 346.6121  13.4673 14.11735044195619
ASTRA 1H
1 25785U 99033A   03049.00000000  .00000116  00000-0  10000-3 0  3724
2 25785   0.0122 319.8851 0002995  65.1991 141.6651  1.00273184 13492
TERRA
1 25994U 99068A   03057.27828745  .00000196  00000-0  53517-4 0  7325
2 25994  98.1930 133.3759 0000859  85.8778 274.2495 14.57138413169799
JAWSAT
1 26061U 00004A   03057.23367518  .00000400  00000-0  15127-3 0  7743
2 26061 100.2032 115.7231 0034736 257.3434 102.3861 14.37833470161634
OPAL
1 26063U 00004C   032 26063 100.2060 111.9519 0036735 268.5295  91.1670 14.35484288161331
ASUSAT
1 26065U 00004E   03056.90026944  .00000112  00000-0  59286-4 0  7425
2 26065 100.2101 112.9602 0036892 267.1542  92.5416 14.35512247161438
GOES 11
1 26352U 00022A   03053.52359343 -.00000041  00000-0  10000-3 0   358
2 26352   0.1489 103.2366 0003355 225.5606 258.1973  1.00265981 10272
EUTELSAT W4
1 26369U 00028A   03056.75615172  .00000140  00000-0  00000+0 0  3554
2 26369   0.0374  10.0316 0003506 335.6383 117.8134  1.00274569 10121
FENGYUN 2B
1 26382U 00032A   03055.65208626 -.00000342  00000-0  00000+0 0  8015
2 26382   0.5557 287.6438 0001691 212.7042 352.9698  1.00272397  9774
EUTELSAT W1
1 26487U 00052A   03054.87867468  .00000057  00000-0  10000-3 0  3596
2 26487   0.0314 296.9935 0003801 337.3757 205.2521  1.00271547  9077
ASTRA 2B
1 26494U 00054A   03049.00000000  .00000146  00000-0  00000+0 0  2555
2 26494   0.0178 354.5658 0005000 302.8402 238.2911  1.00276704  8914
NOAA 16
1 26536U 00055A   03056.59757068  .00000104  00000-0  81059-4 0  2213
2 26536  98.9024   4.8302 0009821 288.9630  71.0476 14.11908746125148
SAUDISAT 1A
1 26545U 00057A   03055.90180258 +.00000610 +00000-0 +10011-3 0 04178
2 26545 064.5602 012.4572 0051727 237.7235 121.8833 14.78996996130164
UNISAT
1 26547U 00057C   03055.88489123 +.00001218 +00000-0 +17605-3 0 04362
2 26547 064.5591 014.7188 0058820 239.7967 119.7303 14.79773616130123
TIUNGSAT 1
1 26548U 00057D   03056.92720889  .00000754  00000-0  11356-3 0  4200
2 26548  64.558SAUDISAT 1B
1 26549U 00057E   03056.88975527  .00000637  00000-0  10576-3 0  7012
2 26549  64.5537  13.5739 0056042 237.7091 121.8550 14.77935919130227
AMSAT OSCAR 40
1 26609U 00072B   03050.21683058 -.00000170 +00000-0 +10000-3 0 03125
2 26609 008.1020 063.9362 7942557 145.4197 310.7583 01.25596576010593
GOES 12
1 26871U 01031A   03056.19351274 -.00000192  00000-0  10000-3 0  8373
2 26871   0.3141 276.2654 0002356  10.9525 204.7249  1.00359819  5903
PCSAT
1 26931U 01043C   03057.22345732  .00000058  00000-0  55245-4 0  4119
2 26931  67.0474 235.9078 0005101 268.4191  91.6325 14.29118376 73449
SAPPHIRE
1 26932U 01043D   03056.57077197  .00000031  00000-0  44476-4 0  4052
2 26932  67.0540 237.2909 0004652 244.0726 115.9895 14.29296443 73372
ENVISAT
1 27386U 02009A   03056.88039319  .00000021  00000-0  23955-2 27386  98.5465 125.3201 0000996  92.5725 267.5571 14.32248361 51792
IDEFIX/ARIANE 42P
1 27422U 02021B   03056.53927838  .00000168  00000-0  85365-4 0  2417
2 27422  98.6940 135.7085 0013253 127.2416 232.9976 14.27973617 42451
FENGYUN 1D
1 27431U 02024B   03057.19194712 -.00000064  00000-0 -12106-4 0  2241
2 27431  98.7688 105.9692 0016106 102.1818 258.1157 14.09178323 40441
NOAA 17
1 27453U 02032A   03056.87672079  .00000221  00000-0  11725-3 0  3165
2 27453  98.7549 128.0490 0011413 339.9182  20.1542 14.23297948 35005
HOT BIRD 6
1 27499U 02038A   03054.87288413  .00000075  00000-0  10000-3 0   703
2 27499   0.0150 173.7812 0009015 197.5701 109.1063  1.00270140  1885
